Home > Weather > Saipan > Past weeks

Flag for Northern Mariana Islands Weather for the Past 2 Weeks in Saipan, Northern Mariana Islands

Now
81 °F

Partly cloudy.


Feels Like: 87 °F
Forecast: 74 / 83 °F
Wind: 5 mph from East

Location: Saipan International Airport

Current Time: Apr 30, 2016 at 12:48:58 AM

Latest Report: Apr 29, 2016 at 11:54 PM


Visibility: 10 mi

Pressure: 30.01 "Hg

Humidity: 89%

Dew Point: 77 °F

Location of SaipanLocation

Historic Weather in Saipan — Graph

°F

Saipan Temperature Yesterday

Maximum temperature yesterday: 88 °F (at 11:54 AM)
Minimum temperature yesterday: 75 °F (at 5:54 AM)
Average temperature yesterday: 81 °F

High & Low Weather Summary for the Past Weeks

 TemperatureHumidityPressure
High90 °F (Apr 17, 1:54 PM)100% (Apr 25, 8:00 AM)30.09 "Hg (Apr 25, 8:00 AM)
Low72 °F (Apr 25, 8:00 AM)56% (Apr 17, 1:54 PM)29.86 "Hg (Apr 23, 3:46 PM)
Average81 °F79%29.99 "Hg
* Reported Apr 14 10:54 PM — Apr 29 10:54 PM, Saipan, Weather by CustomWeather, © 2016

Note: Actual official high and low records may vary slightly from our data, if they occured in-between our weather recording intervals... More about our weather records

Advertising

Saipan Weather History for the Previous 24 Hours

Scroll right to see more
 ConditionsComfort  
Time TempWeatherWind HumidityBarometerVisibility
10:54 PM
Fri, Apr 29
80 °FPartly cloudy.7 mph90%30.01 "Hg10 mi
9:54 PM80 °FPartly cloudy.7 mph90%30.01 "Hg10 mi
8:54 PM80 °FPassing clouds.5 mph90%30.00 "Hg10 mi
7:54 PM80 °FPassing clouds.7 mph87%29.98 "Hg10 mi
6:54 PM80 °FPassing clouds.9 mph87%29.96 "Hg10 mi
5:54 PM82 °FScattered clouds.10 mph82%29.94 "Hg10 mi
4:54 PM85 °FScattered clouds.13 mph75%29.93 "Hg10 mi
4:21 PM82 °FMore clouds than sun.10 mph79%29.87 "Hg10 mi
3:54 PM85 °FScattered clouds.13 mph75%29.93 "Hg10 mi
2:54 PM83 °FBroken clouds.13 mph79%29.93 "Hg10 mi
1:54 PM86 °FScattered clouds.14 mph72%29.94 "Hg10 mi
12:54 PM86 °FPassing clouds.13 mph70%29.96 "Hg10 mi
11:54 AM88 °FPassing clouds.13 mph66%29.99 "Hg10 mi
10:54 AM86 °FBroken clouds.10 mph70%30.00 "Hg10 mi
9:54 AM85 °FBroken clouds.10 mph72%30.02 "Hg10 mi
8:54 AM84 °FPartly sunny.8 mph74%30.01 "Hg10 mi
7:54 AM82 °FScattered clouds.9 mph79%30.00 "Hg10 mi
6:54 AM77 °FPassing clouds.7 mph83%29.98 "Hg10 mi
5:54 AM75 °FPassing clouds.6 mph89%29.97 "Hg10 mi
4:54 AM77 °FPassing clouds.7 mph83%29.96 "Hg10 mi
3:54 AM78 °FPassing clouds.7 mph83%29.96 "Hg10 mi
2:54 AM78 °FPassing clouds.6 mph83%29.96 "Hg10 mi
1:54 AM76 °FPassing clouds.6 mph88%29.97 "Hg10 mi
12:54 AM76 °FPassing clouds.7 mph88%29.98 "Hg10 mi
Weather by CustomWeather, © 2016

See weather overviewHow to use our weather pages